| time (UTC) | temp F | wind direction | speed knots | gust knots | rain 1hr in | rain 24hr in | rain mn in | humidity % | barometer mb |
| 20260505073101 | 59 | 212 | 3.5 | 8.7 | 0.00 | 0.00 | 0.00 | 63 | 1017.7 |
| 20260505072553 | 59 | 328 | 1.7 | 7.8 | 0.00 | 0.00 | 0.00 | 63 | 1017.7 |
| 20260505072053 | 59 | 349 | 3.5 | 7.8 | 0.00 | 0.00 | 0.00 | 62 | 1017.9 |
| 20260505071556 | 60 | 300 | 5.2 | 7.8 | 0.00 | 0.00 | 0.00 | 62 | 1018.0 |
| 20260505071053 | 60 | 281 | 3.5 | 7.0 | 0.00 | 0.00 | 0.00 | 62 | 1017.9 |
| 20260505070556 | 60 | 306 | 2.6 | 6.1 | 0.00 | 0.00 | 0.00 | 61 | 1017.9 |
| 20260505070053 | 60 | 0 | 2.6 | 8.7 | 0.00 | 0.00 | 0.00 | 61 | 1017.7 |
| 20260505065552 | 60 | 290 | 2.6 | 9.6 | 0.00 | 0.00 | 0.00 | 60 | 1017.7 |
| 20260505065052 | 60 | 281 | 3.5 | 9.6 | 0.00 | 0.00 | 0.00 | 59 | 1017.7 |
| 20260505064559 | 60 | 307 | 2.6 | 11.3 | 0.00 | 0.00 | 0.00 | 59 | 1017.8 |
| 20260505064051 | 60 | 297 | 5.2 | 11.3 | 0.00 | 0.00 | 0.00 | 58 | 1017.7 |
| 20260505063551 | 61 | 274 | 6.1 | 11.3 | 0.00 | 0.00 | 0.00 | 57 | 1017.7 |
| 20260505063102 | 61 | 276 | 6.1 | 10.4 | 0.00 | 0.00 | 0.00 | 56 | 1018.0 |
| 20260505062555 | 61 | 300 | 5.2 | 10.4 | 0.00 | 0.00 | 0.00 | 52 | 1017.7 |
| 20260505062054 | 61 | 281 | 4.3 | 8.7 | 0.00 | 0.00 | 0.00 | 52 | 1017.9 |
| 20260505061557 | 61 | 0 | 0.0 | 6.1 | 0.00 | 0.00 | 0.00 | 51 | 1017.9 |
| 20260505061057 | 61 | 0 | 0.0 | 6.1 | 0.00 | 0.00 | 0.00 | 51 | 1017.7 |
| 20260505060553 | 61 | 320 | 2.6 | 7.8 | 0.00 | 0.00 | 0.00 | 50 | 1017.5 |
| 20260505060058 | 61 | 323 | 0.9 | 7.8 | 0.00 | 0.00 | 0.00 | 49 | 1017.5 |
| 20260505055556 | 61 | 0 | 2.6 | 7.8 | 0.00 | 0.00 | 0.00 | 50 | 1017.6 |
| 20260505055058 | 61 | 359 | 0.0 | 10.4 | 0.00 | 0.00 | 0.00 | 48 | 1017.4 |
| 20260505054557 | 61 | 0 | 0.9 | 10.4 | 0.00 | 0.00 | 0.00 | 47 | 1017.5 |
| 20260505054055 | 61 | 297 | 1.7 | 13.0 | 0.00 | 0.00 | 0.00 | 47 | 1017.6 |
| 20260505053554 | 61 | 359 | 2.6 | 13.0 | 0.00 | 0.00 | 0.00 | 47 | 1017.7 |
| 20260505053113 | 61 | 266 | 0.0 | 5.2 | 0.00 | 0.00 | 0.00 | 47 | 1017.9 |
| 20260505052552 | 61 | 0 | 0.0 | 6.1 | 0.00 | 0.00 | 0.00 | 45 | 1017.8 |
| 20260505052052 | 61 | 0 | 0.0 | 6.1 | 0.00 | 0.00 | 0.00 | 43 | 1017.9 |
| 20260505051559 | 61 | 0 | 1.7 | 8.7 | 0.00 | 0.00 | 0.00 | 44 | 1017.7 |
| 20260505051052 | 60 | 325 | 2.6 | 8.7 | 0.00 | 0.00 | 0.00 | 44 | 1017.6 |
| 20260505050553 | 59 | 338 | 3.5 | 8.7 | 0.00 | 0.00 | 0.00 | 47 | 1017.7 |
| 20260505050110 | 59 | 299 | 0.9 | 8.7 | 0.00 | 0.00 | 0.00 | 47 | 1017.7 |
| 20260505041553 | 62 | 0 | 3.5 | 7.0 | 0.00 | 0.00 | 0.00 | 38 | 1017.9 |
| 20260505041055 | 62 | 0 | 0.0 | 0.0 | 0.00 | 0.00 | 0.00 | 42 | 1018.2 |
| 20260505040556 | 62 | 0 | 0.0 | 0.0 | 0.00 | 0.00 | 0.00 | 38 | 1018.1 |
| 20260505040100 | 62 | 0 | 0.0 | 0.0 | 0.00 | 0.00 | 0.00 | 39 | 1017.9 |
| 20260505035555 | 62 | 0 | 0.0 | 4.3 | 0.00 | 0.00 | 0.00 | 42 | 1017.9 |
| 20260505035051 | 62 | 0 | 0.0 | 6.1 | 0.00 | 0.00 | 0.00 | 41 | 1017.8 |
| 20260505034618 | 62 | 295 | 2.6 | 6.1 | 0.00 | 0.00 | 0.00 | 39 | 1017.7 |
| 20260505034057 | 62 | 302 | 0.0 | 3.5 | 0.00 | 0.00 | 0.00 | 40 | 1017.6 |
| 20260505033555 | 63 | 0 | 0.0 | 3.5 | 0.00 | 0.00 | 0.00 | 40 | 1017.7 |
| 20260505033057 | 63 | 0 | 0.0 | 3.5 | 0.00 | 0.00 | 0.00 | 40 | 1017.6 |
| 20260505032555 | 63 | 0 | 0.0 | 3.5 | 0.00 | 0.00 | 0.00 | 40 | 1017.6 |
| 20260505032053 | 63 | 0 | 0.0 | 6.1 | 0.00 | 0.00 | 0.00 | 39 | 1017.5 |
| 20260505031600 | 63 | 0 | 1.7 | 7.0 | 0.00 | 0.00 | 0.00 | 39 | 1017.3 |
| 20260505031055 | 63 | 0 | 2.6 | 7.0 | 0.00 | 0.00 | 0.00 | 40 | 1017.3 |
| 20260505030557 | 63 | 0 | 0.9 | 7.0 | 0.00 | 0.00 | 0.00 | 39 | 1017.1 |
| 20260505025552 | 63 | 6 | 1.7 | 7.0 | 0.00 | 0.00 | 0.00 | 41 | 1016.7 |
| 20260505025053 | 63 | 360 | 1.7 | 13.0 | 0.00 | 0.00 | 0.00 | 40 | 1016.8 |
| 20260505024558 | 63 | 0 | 3.5 | 13.0 | 0.00 | 0.00 | 0.00 | 40 | 1016.8 |
| 20260505024053 | 62 | 359 | 4.3 | 7.8 | 0.00 | 0.00 | 0.00 | 41 | 1016.6 |
| 20260505023555 | 62 | 349 | 4.3 | 7.8 | 0.00 | 0.00 | 0.00 | 42 | 1016.5 |
| 20260505023100 | 62 | 357 | 3.5 | 6.1 | 0.00 | 0.00 | 0.00 | 42 | 1016.5 |
| 20260505022553 | 62 | 359 | 2.6 | 7.0 | 0.00 | 0.00 | 0.00 | 42 | 1016.5 |
| 20260505022051 | 63 | 351 | 4.3 | 7.8 | 0.00 | 0.00 | 0.00 | 41 | 1016.5 |
| 20260505021556 | 63 | 349 | 5.2 | 7.8 | 0.00 | 0.00 | 0.00 | 40 | 1016.6 |
| 20260505021053 | 64 | 333 | 2.6 | 7.0 | 0.00 | 0.00 | 0.00 | 39 | 1016.7 |
| 20260505020553 | 64 | 0 | 2.6 | 7.8 | 0.00 | 0.00 | 0.00 | 38 | 1016.6 |
| 20260505020100 | 64 | 328 | 2.6 | 8.7 | 0.00 | 0.00 | 0.00 | 38 | 1016.6 |
| 20260505015553 | 65 | 316 | 3.5 | 8.7 | 0.00 | 0.00 | 0.00 | 37 | 1016.5 |
| 20260505015053 | 65 | 317 | 4.3 | 8.7 | 0.00 | 0.00 | 0.00 | 36 | 1016.4 |
| 20260505014553 | 65 | 297 | 4.3 | 13.0 | 0.00 | 0.00 | 0.00 | 36 | 1016.3 |
| 20260505014051 | 65 | 334 | 6.1 | 13.0 | 0.00 | 0.00 | 0.00 | 35 | 1016.3 |
| 20260505013551 | 66 | 321 | 5.2 | 13.0 | 0.00 | 0.00 | 0.00 | 34 | 1016.2 |
| 20260505013053 | 67 | 309 | 6.1 | 13.0 | 0.00 | 0.00 | 0.00 | 33 | 1016.3 |
| 20260505012555 | 68 | 360 | 7.8 | 13.0 | 0.00 | 0.00 | 0.00 | 31 | 1016.1 |
| 20260505012055 | 69 | 309 | 6.1 | 11.3 | 0.00 | 0.00 | 0.00 | 29 | 1016.3 |
| 20260505011610 | 70 | 343 | 6.1 | 13.9 | 0.00 | 0.00 | 0.00 | 28 | 1016.2 |
| 20260505011058 | 72 | 3 | 6.1 | 13.9 | 0.00 | 0.00 | 0.00 | 26 | 1016.1 |
| 20260505010554 | 72 | 270 | 7.0 | 13.9 | 0.00 | 0.00 | 0.00 | 24 | 1016.1 |
| 20260505010053 | 72 | 276 | 3.5 | 10.4 | 0.00 | 0.00 | 0.00 | 24 | 1016.1 |
| 20260505005552 | 72 | 276 | 1.7 | 13.0 | 0.00 | 0.00 | 0.00 | 25 | 1016.3 |
| 20260505005052 | 72 | 237 | 4.3 | 13.0 | 0.00 | 0.00 | 0.00 | 25 | 1016.3 |
| 20260505004605 | 72 | 295 | 4.3 | 13.0 | 0.00 | 0.00 | 0.00 | 26 | 1016.3 |
| 20260505004052 | 72 | 286 | 4.3 | 13.0 | 0.00 | 0.00 | 0.00 | 26 | 1016.3 |
| 20260505003551 | 72 | 274 | 4.3 | 12.2 | 0.00 | 0.00 | 0.00 | 26 | 1016.2 |
| 20260505003056 | 72 | 237 | 6.1 | 12.2 | 0.00 | 0.00 | 0.00 | 26 | 1016.1 |
| 20260505002552 | 73 | 0 | 4.3 | 13.9 | 0.00 | 0.00 | 0.00 | 26 | 1016.3 |
| 20260505002053 | 72 | 297 | 7.0 | 13.9 | 0.00 | 0.00 | 0.00 | 26 | 1016.3 |
| 20260505001608 | 73 | 327 | 6.1 | 13.9 | 0.00 | 0.00 | 0.00 | 25 | 1016.1 |
| 20260505001052 | 73 | 319 | 6.1 | 14.8 | 0.00 | 0.00 | 0.00 | 25 | 1016.2 |
| 20260505000551 | 74 | 305 | 3.5 | 14.8 | 0.00 | 0.00 | 0.00 | 25 | 1016.3 |
| 20260505000111 | 74 | 302 | 7.0 | 14.8 | 0.00 | 0.00 | 0.00 | 25 | 1016.2 |
| 20260504235555 | 74 | 295 | 2.6 | 13.0 | 0.00 | 0.00 | 0.00 | 25 | 1016.4 |
| 20260504235056 | 74 | 270 | 3.5 | 13.0 | 0.00 | 0.00 | 0.00 | 26 | 1016.5 |
| 20260504234558 | 74 | 300 | 6.1 | 15.6 | 0.00 | 0.00 | 0.00 | 26 | 1016.4 |
| 20260504234054 | 74 | 279 | 7.0 | 15.6 | 0.00 | 0.00 | 0.00 | 26 | 1016.4 |
| 20260504233554 | 74 | 272 | 6.1 | 15.6 | 0.00 | 0.00 | 0.00 | 26 | 1016.4 |
| 20260504233111 | 74 | 276 | 5.2 | 15.6 | 0.00 | 0.00 | 0.00 | 26 | 1016.3 |
| 20260504232552 | 74 | 0 | 7.8 | 17.4 | 0.00 | 0.00 | 0.00 | 25 | 1016.1 |
| 20260504232054 | 75 | 250 | 9.6 | 17.4 | 0.00 | 0.00 | 0.00 | 23 | 1016.2 |
| 20260504231600 | 75 | 270 | 8.7 | 16.5 | 0.00 | 0.00 | 0.00 | 21 | 1016.0 |
| 20260504231053 | 76 | 246 | 4.3 | 12.2 | 0.00 | 0.00 | 0.00 | 20 | 1016.0 |
| 20260504230553 | 75 | 0 | 1.7 | 15.6 | 0.00 | 0.00 | 0.00 | 20 | 1016.1 |
| 20260504230058 | 75 | 288 | 6.1 | 15.6 | 0.00 | 0.00 | 0.00 | 19 | 1015.9 |
| 20260504225556 | 75 | 280 | 8.7 | 15.6 | 0.00 | 0.00 | 0.00 | 18 | 1015.7 |
| 20260504225055 | 76 | 307 | 8.7 | 15.6 | 0.00 | 0.00 | 0.00 | 18 | 1015.9 |
| 20260504224556 | 76 | 298 | 8.7 | 14.8 | 0.00 | 0.00 | 0.00 | 18 | 1015.9 |
| 20260504224051 | 76 | 297 | 8.7 | 14.8 | 0.00 | 0.00 | 0.00 | 19 | 1016.0 |
| 20260504223554 | 76 | 322 | 4.3 | 13.9 | 0.00 | 0.00 | 0.00 | 18 | 1016.3 |
| 20260504223055 | 76 | 277 | 5.2 | 17.4 | 0.00 | 0.00 | 0.00 | 20 | 1016.4 |
| 20260504222556 | 76 | 262 | 7.0 | 17.4 | 0.00 | 0.00 | 0.00 | 19 | 1016.5 |
| 20260504222053 | 77 | 338 | 7.0 | 13.9 | 0.00 | 0.00 | 0.00 | 18 | 1016.3 |
| 20260504221555 | 78 | 237 | 5.2 | 13.9 | 0.00 | 0.00 | 0.00 | 19 | 1016.4 |
| 20260504221053 | 78 | 288 | 3.5 | 15.6 | 0.00 | 0.00 | 0.00 | 20 | 1016.2 |
| 20260504220551 | 78 | 295 | 4.3 | 15.6 | 0.00 | 0.00 | 0.00 | 20 | 1016.2 |
| 20260504220057 | 78 | 0 | 7.8 | 15.6 | 0.00 | 0.00 | 0.00 | 20 | 1016.0 |
| 20260504215554 | 79 | 248 | 3.5 | 8.7 | 0.00 | 0.00 | 0.00 | 19 | 1016.2 |
| 20260504215052 | 79 | 296 | 1.7 | 9.6 | 0.00 | 0.00 | 0.00 | 19 | 1016.2 |
| 20260504214606 | 78 | 269 | 1.7 | 11.3 | 0.00 | 0.00 | 0.00 | 19 | 1016.4 |
| 20260504214054 | 78 | 293 | 2.6 | 11.3 | 0.00 | 0.00 | 0.00 | 18 | 1016.4 |
| 20260504213553 | 79 | 243 | 4.3 | 11.3 | 0.00 | 0.00 | 0.00 | 17 | 1016.3 |
| 20260504213058 | 80 | 272 | 3.5 | 10.4 | 0.00 | 0.00 | 0.00 | 18 | 1016.4 |
| 20260504212555 | 79 | 221 | 4.3 | 10.4 | 0.00 | 0.00 | 0.00 | 17 | 1016.3 |
| 20260504212052 | 79 | 214 | 4.3 | 11.3 | 0.00 | 0.00 | 0.00 | 17 | 1016.3 |
| 20260504211600 | 79 | 240 | 4.3 | 11.3 | 0.00 | 0.00 | 0.00 | 16 | 1016.3 |
| 20260504211052 | 79 | 253 | 4.3 | 11.3 | 0.00 | 0.00 | 0.00 | 15 | 1016.5 |
| 20260504210557 | 79 | 257 | 3.5 | 11.3 | 0.00 | 0.00 | 0.00 | 15 | 1016.5 |
| 20260504210059 | 80 | 248 | 4.3 | 10.4 | 0.00 | 0.00 | 0.00 | 15 | 1016.5 |
| 20260504205556 | 80 | 230 | 4.3 | 9.6 | 0.00 | 0.00 | 0.00 | 14 | 1016.5 |
| 20260504205054 | 80 | 0 | 2.6 | 9.6 | 0.00 | 0.00 | 0.00 | 13 | 1016.3 |
| 20260504204615 | 80 | 272 | 2.6 | 8.7 | 0.00 | 0.00 | 0.00 | 13 | 1016.6 |
| 20260504204054 | 80 | 267 | 1.7 | 8.7 | 0.00 | 0.00 | 0.00 | 15 | 1016.6 |
| 20260504203553 | 80 | 228 | 0.0 | 7.8 | 0.00 | 0.00 | 0.00 | 16 | 1016.6 |
| 20260504203106 | 80 | 0 | 1.7 | 7.8 | 0.00 | 0.00 | 0.00 | 17 | 1016.6 |
| 20260504202555 | 80 | 233 | 0.0 | 7.8 | 0.00 | 0.00 | 0.00 | 17 | 1016.6 |
| 20260504202055 | 80 | 266 | 0.9 | 11.3 | 0.00 | 0.00 | 0.00 | 18 | 1016.8 |
| 20260504201555 | 80 | 0 | 4.3 | 11.3 | 0.00 | 0.00 | 0.00 | 18 | 1016.8 |
| 20260504201053 | 80 | 242 | 2.6 | 9.6 | 0.00 | 0.00 | 0.00 | 18 | 1016.8 |
| 20260504200554 | 80 | 251 | 3.5 | 10.4 | 0.00 | 0.00 | 0.00 | 18 | 1017.0 |
| 20260504200109 | 80 | 202 | 2.6 | 10.4 | 0.00 | 0.00 | 0.00 | 19 | 1016.8 |
| 20260504195550 | 79 | 0 | 2.6 | 7.8 | 0.00 | 0.00 | 0.00 | 18 | 1017.0 |
| 20260504195050 | 79 | 259 | 0.9 | 7.0 | 0.00 | 0.00 | 0.00 | 18 | 1016.9 |
| 20260504194603 | 79 | 0 | 0.0 | 7.0 | 0.00 | 0.00 | 0.00 | 18 | 1017.1 |
| 20260504194057 | 78 | 0 | 0.9 | 7.0 | 0.00 | 0.00 | 0.00 | 19 | 1017.1 |
| 20260504193556 | 78 | 0 | 2.6 | 13.9 | 0.00 | 0.00 | 0.00 | 18 | 1017.1 |
| 20260504193057 | 79 | 0 | 2.6 | 13.9 | 0.00 | 0.00 | 0.00 | 17 | 1017.2 |
| 20260504192555 | 79 | 0 | 0.0 | 10.4 | 0.00 | 0.00 | 0.00 | 18 | 1017.3 |
| 20260504192055 | 79 | 271 | 3.5 | 13.0 | 0.00 | 0.00 | 0.00 | 16 | 1017.3 |
| 20260504191615 | 79 | 267 | 0.9 | 13.0 | 0.00 | 0.00 | 0.00 | 16 | 1017.4 |
| 20260504191052 | 79 | 232 | 0.0 | 8.7 | 0.00 | 0.00 | 0.00 | 17 | 1017.4 |
| 20260504190556 | 78 | 251 | 0.9 | 8.7 | 0.00 | 0.00 | 0.00 | 19 | 1017.4 |
| 20260504190053 | 78 | 258 | 4.3 | 7.8 | 0.00 | 0.00 | 0.00 | 17 | 1017.5 |
| 20260504185552 | 78 | 248 | 1.7 | 7.8 | 0.00 | 0.00 | 0.00 | 16 | 1017.5 |
| 20260504185052 | 78 | 0 | 0.0 | 4.3 | 0.00 | 0.00 | 0.00 | 20 | 1017.6 |
| 20260504184556 | 77 | 0 | 0.0 | 4.3 | 0.00 | 0.00 | 0.00 | 19 | 1017.7 |
| 20260504184056 | 77 | 254 | 0.0 | 8.7 | 0.00 | 0.00 | 0.00 | 20 | 1017.8 |
| 20260504183554 | 77 | 0 | 1.7 | 9.6 | 0.00 | 0.00 | 0.00 | 22 | 1017.8 |
| 20260504183056 | 77 | 0 | 3.5 | 9.6 | 0.00 | 0.00 | 0.00 | 20 | 1017.8 |
| 20260504182557 | 76 | 0 | 3.5 | 9.6 | 0.00 | 0.00 | 0.00 | 20 | 1017.9 |
| 20260504182058 | 76 | 0 | 0.9 | 7.0 | 0.00 | 0.00 | 0.00 | 21 | 1018.0 |
| 20260504181603 | 76 | 134 | 0.9 | 4.3 | 0.00 | 0.00 | 0.00 | 22 | 1018.0 |
| 20260504181057 | 76 | 0 | 0.0 | 6.1 | 0.00 | 0.00 | 0.00 | 24 | 1018.0 |
| 20260504180558 | 76 | 0 | 1.7 | 6.1 | 0.00 | 0.00 | 0.00 | 24 | 1017.9 |
| 20260504175556 | 74 | 0 | 0.0 | 7.0 | 0.00 | 0.00 | 0.00 | 25 | 1018.0 |
| 20260504175055 | 73 | 0 | 2.6 | 7.0 | 0.00 | 0.00 | 0.00 | 24 | 1017.9 |
| 20260504174557 | 74 | 0 | 3.5 | 7.0 | 0.00 | 0.00 | 0.00 | 24 | 1018.0 |
| 20260504174055 | 74 | 0 | 0.0 | 5.2 | 0.00 | 0.00 | 0.00 | 26 | 1018.0 |
| 20260504173555 | 74 | 0 | 0.9 | 5.2 | 0.00 | 0.00 | 0.00 | 25 | 1017.9 |
| 20260504173053 | 73 | 35 | 1.7 | 5.2 | 0.00 | 0.00 | 0.00 | 26 | 1017.9 |
| 20260504172555 | 73 | 62 | 0.9 | 5.2 | 0.00 | 0.00 | 0.00 | 27 | 1018.0 |
| 20260504172056 | 72 | 0 | 2.6 | 5.2 | 0.00 | 0.00 | 0.00 | 26 | 1018.0 |
| 20260504171556 | 73 | 21 | 1.7 | 5.2 | 0.00 | 0.00 | 0.00 | 27 | 1018.1 |
| 20260504171056 | 73 | 1 | 0.9 | 5.2 | 0.00 | 0.00 | 0.00 | 26 | 1018.2 |
| 20260504170558 | 73 | 27 | 0.0 | 7.0 | 0.00 | 0.00 | 0.00 | 25 | 1018.0 |
| 20260504151056 | 68 | 158 | 2.6 | 8.7 | 0.00 | 0.00 | 0.00 | 34 | 1018.4 |
| 20260504150555 | 68 | 0 | 0.0 | 8.7 | 0.00 | 0.00 | 0.00 | 35 | 1018.4 |
| 20260504141055 | 65 | 176 | 4.3 | 8.7 | 0.00 | 0.00 | 0.00 | 36 | 1018.4 |
| 20260504140555 | 65 | 153 | 3.5 | 6.1 | 0.00 | 0.00 | 0.00 | 40 | 1018.4 |
| 20260504130554 | 58 | 0 | 0.0 | 0.0 | 0.00 | 0.00 | 0.00 | 54 | 1017.5 |
| 20260504110555 | 62 | 0 | 0.0 | 5.2 | 0.00 | 0.00 | 0.00 | 42 | 1016.9 |
| 20260504100557 | 62 | 0 | 0.0 | 0.0 | 0.00 | 0.00 | 0.00 | 43 | 1016.5 |
| 20260504090112 | 61 | 0 | 0.0 | 0.0 | 0.00 | 0.00 | 0.00 | 44 | 1016.7 |
| 20260504081557 | 61 | 0 | 0.0 | 4.3 | 0.00 | 0.00 | 0.00 | 41 | 1017.1 |
| 20260504081057 | 61 | 0 | 0.0 | 5.2 | 0.00 | 0.00 | 0.00 | 41 | 1017.1 |
| 20260504080555 | 60 | 0 | 0.9 | 5.2 | 0.00 | 0.00 | 0.00 | 41 | 1017.1 |